TimeCDT,TemperatureF,Dew PointF,Humidity,Sea Level PressureIn,VisibilityMPH,Wind Direction,Wind SpeedMPH,Gust SpeedMPH,PrecipitationIn,Events,Conditions,WindDirDegrees,DateUTC
12:00 AM,69.8,66.2,88,29.87,2.5,NNW,23.0,32.2,0.12,Rain-Thunderstorm,Heavy Thunderstorms and Rain,340,2013-09-01 05:00:00
12:08 AM,71.6,68.0,88,29.85,1.5,Variable,3.5,28.8,0.21,Rain-Thunderstorm,Heavy Thunderstorms and Rain,0,2013-09-01 05:08:00
12:12 AM,69.8,68.0,94,29.83,3.0,SSE,12.7,-,0.22,Rain-Thunderstorm,Light Thunderstorms and Rain,160,2013-09-01 05:12:00
12:53 AM,68.0,64.9,90,29.81,5.0,South,6.9,-,0.25,Rain-Thunderstorm,Rain,170,2013-09-01 05:53:00
1:30 AM,66.2,62.6,88,29.83,10.0,SSW,8.1,-,0.01,Rain,Light Rain,210,2013-09-01 06:30:00
1:39 AM,66.2,64.4,94,29.83,10.0,West,8.1,-,0.01,Thunderstorm,Mostly Cloudy,260,2013-09-01 06:39:00
1:53 AM,66.9,64.0,90,29.83,10.0,WSW,4.6,-,0.01,,Mostly Cloudy,250,2013-09-01 06:53:00
2:00 AM,66.2,64.4,94,29.86,10.0,West,5.8,-,N/A,Thunderstorm,Mostly Cloudy,270,2013-09-01 07:00:00
2:53 AM,66.9,64.9,93,29.81,10.0,NW,8.1,-,0.00,,Mostly Cloudy,320,2013-09-01 07:53:00
3:53 AM,66.9,64.0,90,29.82,10.0,WNW,9.2,-,N/A,,Clear,300,2013-09-01 08:53:00
4:53 AM,66.0,63.0,90,29.83,6.0,WNW,6.9,-,N/A,,Clear,300,2013-09-01 09:53:00
5:53 AM,64.0,62.1,93,29.86,10.0,West,4.6,-,N/A,,Clear,260,2013-09-01 10:53:00
6:53 AM,61.0,59.0,93,29.88,10.0,WNW,4.6,-,N/A,,Clear,290,2013-09-01 11:53:00
7:53 AM,63.0,60.1,90,29.90,10.0,West,3.5,-,N/A,,Clear,270,2013-09-01 12:53:00
8:53 AM,66.9,59.0,76,29.93,10.0,Calm,Calm,-,0.01,,Clear,0,2013-09-01 13:53:00
9:53 AM,71.1,59.0,66,29.94,10.0,NW,6.9,-,N/A,,Clear,310,2013-09-01 14:53:00
10:53 AM,75.0,60.1,60,29.92,10.0,NW,10.4,-,N/A,,Clear,320,2013-09-01 15:53:00
11:53 AM,77.0,57.0,50,29.92,10.0,NNW,18.4,26.5,N/A,,Clear,340,2013-09-01 16:53:00
12:53 PM,78.1,55.9,46,29.92,10.0,NNW,24.2,28.8,N/A,,Clear,330,2013-09-01 17:53:00
1:53 PM,79.0,57.0,47,29.92,10.0,NNW,18.4,27.6,N/A,,Clear,330,2013-09-01 18:53:00
2:53 PM,77.0,59.0,54,29.92,10.0,NNW,18.4,-,N/A,,Mostly Cloudy,330,2013-09-01 19:53:00
3:53 PM,78.1,59.0,52,29.92,10.0,NNW,15.0,23.0,N/A,,Partly Cloudy,340,2013-09-01 20:53:00
4:53 PM,78.1,59.0,52,29.94,10.0,NNW,16.1,-,N/A,,Mostly Cloudy,330,2013-09-01 21:53:00
5:53 PM,75.9,57.9,54,29.95,10.0,NNW,18.4,23.0,N/A,,Clear,340,2013-09-01 22:53:00
6:53 PM,72.0,57.0,59,29.96,10.0,North,13.8,-,N/A,,Clear,350,2013-09-01 23:53:00
7:53 PM,66.9,57.0,70,29.98,10.0,North,10.4,-,N/A,,Clear,360,2013-09-02 00:53:00
8:53 PM,64.0,57.0,78,29.99,10.0,North,8.1,-,N/A,,Clear,360,2013-09-02 01:53:00
9:53 PM,57.9,55.0,90,30.01,10.0,NNW,5.8,-,N/A,,Clear,330,2013-09-02 02:53:00
10:53 PM,57.0,54.0,89,30.02,10.0,NNW,5.8,-,N/A,,Clear,330,2013-09-02 03:53:00
11:27 PM,57.2,53.6,88,30.04,10.0,Variable,3.5,-,N/A,,Mostly Cloudy,0,2013-09-02 04:27:00
11:53 PM,60.1,55.9,86,30.02,10.0,North,4.6,-,N/A,,Overcast,350,2013-09-02 04:53:00